Location: Cazarilh
(42.9578°N, 0.5819°E)
Time: 13:27:05
(UTC+00:00)

Cosmos 2034 Rocket - Pass Details

Date: 11 December 2019
Orbit: 957 x 1001 km, 82.9° (Epoch: 23 January)

Event Time Altitude Azimuth Distance (km) Brightness Sun altitude
Rises 05:09:25 0° 209° (SSW) 3,681 6.8 -22.7°
Reaches altitude 10° 05:12:05 10° 216° (SW) 2,743 6.1 -22.3°
Enters shadow 05:13:26 17° 223° (SW) 2,300 5.7 -22.0°
Exits shadow 05:16:26 35° 253° (WSW) 1,549 4.6 -21.5°
Maximum altitude 05:17:57 40° 285° (WNW) 1,426 4.3 -21.2°
Drops below altitude 10° 05:23:56 10° 354° (N) 2,779 6.2 -20.1°
Sets 05:26:40 0° 2° (N) 3,735 6.9 -19.7°
